Tracking 20624 objects as of 28-Mar-2020
HD Live streaming from Space Station
objects crossing your sky now

ORBCOMM FM 4

Track ORBCOMM FM 4 now!
10-day predictions
ORBCOMM FM 4 is classified as:


NORAD ID: 25159
Int'l Code: 1998-007C
Perigee: 767.7 km
Apogee: 831.6 km
Inclination: 108.0 °
Period: 100.7 minutes
Semi major axis: 7170 km
RCS: 1.0023 m2 (large)
Launch date: February 10, 1998
Source: ORBCOMM (ORB)
Launch site: AIR FORCE WESTERN TEST RANGE (AFWTR)
aabbcc
Your satellite tracking list
Your tracking list is empty




NASA's NSSDC Master Catalog

Two Line Element Set (TLE):
1 25159U 98007C   20087.54690539 +.00000091 +00000-0 +85799-4 0  9996
2 25159 107.9924 197.4222 0044525 318.1332 041.6403 14.29772125151324
Source of the keplerian elements: AFSPC